Regional Weather Roundup
Issued by NWS

Home | Current Version | Previous Version | Graphics & Text | Print | Product List | Glossary On
Versions: 1 2 3 4 5 6 7 8 9 10 11 12 13 14 15 16 17 18 19 20 21 22 23 24 25 26 27 28 29 30 31 32 33 34 35 36 37 38 39 40 41 42 43 44 45 46 47 48 49 50
656
ASUS43 KLMK 241902
RWRKY
KENTUCKY REGIONAL WEATHER ROUNDUP
NATIONAL WEATHER SERVICE LOUISVILLE KY
300 PM EDT WED MAY 24 2017

NOTE "FAIR" INDICATES FEW OR NO CLOUDS BELOW 12,000 FEET
WITH NO SIGNIFICANT WEATHER AND/OR OBSTRUCTIONS TO VISIBILITY.

KYZ001>023-026-027-061>063-070>075-242000-
WESTERN AND SOUTH CENTRAL KENTUCKY

CITY           SKY/WX    TMP DP  RH WIND       PRES   REMARKS
PADUCAH        MOSUNNY   67  50  54 N9        29.52F
HENDERSON      LGT RAIN  59  56  89 NW14      29.50S
OWENSBORO      RAIN      59  57  93 NW8       29.47S
HOPKINSVILLE   LGT RAIN  57  57 100 NW14      29.50R
BOWLING GREEN  HVY RAIN  59  58  96 W14G21    29.42R FOG
GLASGOW        NOT AVBL
$$

KYZ024-025-028>034-038-045-046-053-242000-
NORTH CENTRAL KENTUCKY

CITY           SKY/WX    TMP DP  RH WIND       PRES   REMARKS
LOUISVILLE/SDF CLOUDY    66  59  78 N13       29.40F
LOUISVILLE/LOU CLOUDY    66  60  81 N8        29.41F
FORT KNOX      CLOUDY    61  55  82 NW8       29.40F
$$

KYZ035>037-039>044-047>052-055>060-089>105-242000-
NORTHEAST KENTUCKY

CITY           SKY/WX    TMP DP  RH WIND       PRES   REMARKS
LEXINGTON      PTSUNNY   68  58  70 SE13      29.42F
COVINGTON      LGT RAIN  64  62  93 W3        29.41F
FRANKFORT      PTSUNNY   72  60  66 E10       29.39F
$$

KYZ054-064>069-076>088-106>120-242000-
SOUTHEAST KENTUCKY

CITY           SKY/WX    TMP DP  RH WIND       PRES   REMARKS
JACKSON        CLOUDY    65  62  90 SE5       29.45S
LONDON         PTSUNNY   67  58  72 SE9       29.43F
SOMERSET       CLOUDY    70  59  68 S9        29.39F
MIDDLESBORO    CLOUDY    66  60  79 S8        29.48F
MONTICELLO     MOCLDY    70  60  70 SE17G25   29.37F
$$





USA.gov is the U.S. government's official web portal to all federal, state and local government web resources and services.